Time,TemperatureF,DewpointF,PressureIn,WindDirection,WindDirectionDegrees,WindSpeedMPH,WindSpeedGustMPH,Humidity,HourlyPrecipIn,Conditions,Clouds,dailyrainin,SoftwareType,DateUTC
2013-04-07 00:00:00,54.4,51.8,30.18,SE,135,0.0,4.0,91,0.00,,,-99.99,WeatherLink 6.0.0,2013-04-07 07:00:00,
2013-04-07 00:30:00,54.3,51.7,30.18,SE,135,1.0,6.0,91,0.00,,,-99.99,WeatherLink 6.0.0,2013-04-07 07:30:00,
2013-04-07 01:00:00,54.1,51.8,30.18,SE,135,2.0,6.0,92,0.00,,,-99.99,WeatherLink 6.0.0,2013-04-07 08:00:00,
2013-04-07 01:30:00,53.9,51.6,30.18,SE,135,2.0,5.0,92,0.00,,,-99.99,WeatherLink 6.0.0,2013-04-07 08:30:00,
2013-04-07 02:00:00,53.9,51.6,30.17,SE,135,2.0,6.0,92,0.00,,,-99.99,WeatherLink 6.0.0,2013-04-07 09:00:00,
2013-04-07 02:30:00,53.5,51.5,30.16,SE,135,1.0,4.0,93,0.00,,,-99.99,WeatherLink 6.0.0,2013-04-07 09:30:00,
2013-04-07 03:00:00,53.2,51.5,30.15,SE,135,1.0,5.0,94,0.00,,,-99.99,WeatherLink 6.0.0,2013-04-07 10:00:00,
2013-04-07 03:30:00,53.0,51.3,30.15,SE,135,2.0,7.0,94,0.00,,,-99.99,WeatherLink 6.0.0,2013-04-07 10:30:00,
2013-04-07 04:00:00,52.8,51.1,30.14,SE,135,2.0,6.0,94,0.00,,,-99.99,WeatherLink 6.0.0,2013-04-07 11:00:00,
2013-04-07 04:30:00,52.1,50.4,30.15,South,180,2.0,6.0,94,0.00,,,-99.99,WeatherLink 6.0.0,2013-04-07 11:30:00,
2013-04-07 05:00:00,51.3,49.6,30.14,South,180,3.0,7.0,94,0.00,,,-99.99,WeatherLink 6.0.0,2013-04-07 12:00:00,
2013-04-07 05:34:00,51.0,48.5,30.15,SE,135,3.0,8.0,91,0.00,,,-99.99,WeatherLink 6.0.0,2013-04-07 12:34:00,
2013-04-07 05:40:00,50.7,48.2,30.15,SE,134,1.0,2.0,91,0.00,,,0.00,Wunderground v.1.15,2013-04-07 12:40:00,
2013-04-07 05:50:00,50.4,47.9,30.14,SE,140,0.0,0.0,91,0.00,,,0.00,Wunderground v.1.15,2013-04-07 12:50:00,
2013-04-07 06:00:00,50.1,47.9,30.14,SE,140,0.0,0.0,92,0.00,,,0.00,Wunderground v.1.15,2013-04-07 13:00:00,
2013-04-07 06:10:00,50.0,48.1,30.14,SE,140,0.0,0.0,93,0.00,,,0.00,Wunderground v.1.15,2013-04-07 13:10:00,
2013-04-07 06:20:00,49.8,47.9,30.14,SE,130,0.0,1.0,93,0.00,,,0.00,Wunderground v.1.15,2013-04-07 13:20:00,
2013-04-07 06:30:00,49.6,47.4,30.15,SE,145,1.0,1.0,92,0.00,,,0.00,Wunderground v.1.15,2013-04-07 13:30:00,
2013-04-07 06:40:00,49.6,47.4,30.15,SE,146,4.0,5.0,92,0.00,,,0.00,Wunderground v.1.15,2013-04-07 13:40:00,
2013-04-07 06:50:00,49.5,47.3,30.15,SE,129,4.0,4.0,92,0.00,,,0.00,Wunderground v.1.15,2013-04-07 13:50:00,
2013-04-07 07:00:00,49.4,46.9,30.15,SE,129,3.0,4.0,91,0.00,,,0.00,Wunderground v.1.15,2013-04-07 14:00:00,
2013-04-07 07:10:00,49.5,46.7,30.15,SSE,149,3.0,4.0,90,0.00,,,0.00,Wunderground v.1.15,2013-04-07 14:10:00,
2013-04-07 07:20:00,49.6,46.8,30.15,SE,129,1.0,5.0,90,0.00,,,0.00,Wunderground v.1.15,2013-04-07 14:20:00,
2013-04-07 07:30:00,49.8,46.7,30.15,SSE,155,3.0,3.0,89,0.00,,,0.00,Wunderground v.1.15,2013-04-07 14:30:00,
2013-04-07 07:40:00,50.2,46.8,30.15,SE,125,3.0,7.0,88,0.00,,,0.00,Wunderground v.1.15,2013-04-07 14:40:00,
2013-04-07 07:50:00,50.6,47.2,30.15,SE,126,4.0,4.0,88,0.00,,,0.00,Wunderground v.1.15,2013-04-07 14:50:00,
2013-04-07 08:00:00,51.0,47.3,30.15,SSE,160,4.0,4.0,87,0.00,,,0.00,Wunderground v.1.15,2013-04-07 15:00:00,
2013-04-07 08:10:00,51.4,47.7,30.15,SE,140,4.0,4.0,87,0.00,,,0.00,Wunderground v.1.15,2013-04-07 15:10:00,
2013-04-07 08:20:00,51.9,48.2,30.14,SE,134,5.0,5.0,87,0.00,,,0.00,Wunderground v.1.15,2013-04-07 15:20:00,
2013-04-07 08:30:00,52.5,48.1,30.15,SE,134,1.0,3.0,85,0.00,,,0.00,Wunderground v.1.15,2013-04-07 15:30:00,
2013-04-07 08:40:00,52.8,48.4,30.14,SE,126,2.0,5.0,85,0.00,,,0.00,Wunderground v.1.15,2013-04-07 15:40:00,
2013-04-07 08:50:00,53.0,48.0,30.14,SSE,148,4.0,4.0,83,0.00,,,0.00,Wunderground v.1.15,2013-04-07 15:50:00,
2013-04-07 09:00:00,53.4,48.4,30.14,SSE,147,3.0,8.0,83,0.00,,,0.00,Wunderground v.1.15,2013-04-07 16:00:00,
2013-04-07 09:10:00,53.7,48.7,30.13,SE,128,5.0,5.0,83,0.00,,,0.00,Wunderground v.1.15,2013-04-07 16:10:00,
2013-04-07 09:20:00,54.5,48.8,30.12,ESE,115,3.0,5.0,81,0.00,,,0.00,Wunderground v.1.15,2013-04-07 16:20:00,
2013-04-07 09:30:00,55.1,48.4,30.12,ESE,117,4.0,4.0,78,0.00,,,0.00,Wunderground v.1.15,2013-04-07 16:30:00,
2013-04-07 09:40:00,55.5,48.8,30.13,SE,146,4.0,4.0,78,0.00,,,0.00,Wunderground v.1.15,2013-04-07 16:40:00,
2013-04-07 09:50:00,56.2,48.0,30.13,SE,132,3.0,3.0,74,0.00,,,0.00,Wunderground v.1.15,2013-04-07 16:50:00,
2013-04-07 10:00:00,57.0,49.5,30.13,SSW,204,2.0,2.0,76,0.00,,,0.00,Wunderground v.1.15,2013-04-07 17:00:00,
2013-04-07 10:10:00,57.7,49.5,30.14,SSE,157,2.0,2.0,74,0.00,,,0.00,Wunderground v.1.15,2013-04-07 17:10:00,
2013-04-07 10:20:00,58.5,49.5,30.14,SE,133,2.0,2.0,72,0.00,,,0.00,Wunderground v.1.15,2013-04-07 17:20:00,
2013-04-07 10:30:00,59.1,49.7,30.14,South,186,2.0,2.0,71,0.00,,,0.00,Wunderground v.1.15,2013-04-07 17:30:00,
2013-04-07 10:40:00,59.5,49.7,30.13,South,185,2.0,2.0,70,0.00,,,0.00,Wunderground v.1.15,2013-04-07 17:40:00,
2013-04-07 11:00:00,59.9,50.1,30.11,South,178,4.0,4.0,70,0.00,,,0.00,Wunderground v.1.15,2013-04-07 18:00:00,
2013-04-07 11:10:00,60.2,50.8,30.11,SSW,192,3.0,6.0,71,0.00,,,0.00,Wunderground v.1.15,2013-04-07 18:10:00,
2013-04-07 11:20:00,60.2,50.4,30.11,SSE,149,4.0,4.0,70,0.00,,,0.00,Wunderground v.1.15,2013-04-07 18:20:00,
2013-04-07 11:30:00,60.5,50.3,30.11,SSE,154,4.0,4.0,69,0.00,,,0.00,Wunderground v.1.15,2013-04-07 18:30:00,
2013-04-07 11:40:00,61.4,51.1,30.12,South,173,2.0,3.0,69,0.00,,,0.00,Wunderground v.1.15,2013-04-07 18:40:00,
2013-04-07 11:50:00,61.0,50.8,30.11,SSW,194,3.0,3.0,69,0.00,,,0.00,Wunderground v.1.15,2013-04-07 18:50:00,
2013-04-07 12:00:00,61.4,51.5,30.10,SSW,195,3.0,3.0,70,0.00,,,0.00,Wunderground v.1.15,2013-04-07 19:00:00,
2013-04-07 12:10:00,61.3,51.8,30.10,WSW,248,4.0,4.0,71,0.00,,,0.00,Wunderground v.1.15,2013-04-07 19:10:00,
2013-04-07 12:20:00,61.3,52.2,30.10,SSW,210,4.0,4.0,72,0.00,,,0.00,Wunderground v.1.15,2013-04-07 19:20:00,
2013-04-07 12:30:00,61.8,52.3,30.09,South,182,3.0,5.0,71,0.00,,,0.00,Wunderground v.1.15,2013-04-07 19:30:00,
2013-04-07 12:40:00,62.1,52.6,30.08,South,176,4.0,4.0,71,0.00,,,0.00,Wunderground v.1.15,2013-04-07 19:40:00,
2013-04-07 12:50:00,61.6,52.1,30.08,SSW,200,5.0,5.0,71,0.00,,,0.00,Wunderground v.1.15,2013-04-07 19:50:00,
2013-04-07 13:00:00,62.4,52.9,30.08,SSW,192,4.0,7.0,71,0.00,,,0.00,Wunderground v.1.15,2013-04-07 20:00:00,
2013-04-07 13:10:00,62.3,52.4,30.07,SSE,167,5.0,5.0,70,0.00,,,0.00,Wunderground v.1.15,2013-04-07 20:10:00,
2013-04-07 13:20:00,63.1,53.9,30.06,SW,225,5.0,5.0,72,0.00,,,0.00,Wunderground v.1.15,2013-04-07 20:20:00,
2013-04-07 13:30:00,64.0,53.6,30.05,SSW,206,3.0,3.0,69,0.00,,,0.00,Wunderground v.1.15,2013-04-07 20:30:00,
2013-04-07 13:40:00,63.5,53.9,30.05,SSW,205,4.0,4.0,71,0.00,,,0.00,Wunderground v.1.15,2013-04-07 20:40:00,
2013-04-07 13:50:00,63.6,53.2,30.05,South,187,4.0,6.0,69,0.00,,,0.00,Wunderground v.1.15,2013-04-07 20:50:00,
2013-04-07 14:00:00,63.3,53.3,30.04,WSW,258,4.0,4.0,70,0.00,,,0.00,Wunderground v.1.15,2013-04-07 21:00:00,
2013-04-07 14:10:00,63.2,52.9,30.04,South,190,4.0,6.0,69,0.00,,,0.00,Wunderground v.1.15,2013-04-07 21:10:00,
2013-04-07 14:20:00,62.8,52.9,30.03,SW,215,5.0,5.0,70,0.00,,,0.00,Wunderground v.1.15,2013-04-07 21:20:00,
2013-04-07 14:30:00,62.5,53.0,30.03,South,176,5.0,5.0,71,0.00,,,0.00,Wunderground v.1.15,2013-04-07 21:30:00,
2013-04-07 14:40:00,62.2,53.4,30.02,South,178,6.0,9.0,73,0.00,,,0.00,Wunderground v.1.15,2013-04-07 21:40:00,
2013-04-07 14:50:00,62.4,53.6,30.02,SSE,156,5.0,5.0,73,0.00,,,0.00,Wunderground v.1.15,2013-04-07 21:50:00,
2013-04-07 15:00:00,62.5,53.7,30.02,SSW,194,4.0,6.0,73,0.00,,,0.00,Wunderground v.1.15,2013-04-07 22:00:00,
2013-04-07 15:10:00,62.1,53.0,30.02,SSW,198,4.0,6.0,72,0.00,,,0.00,Wunderground v.1.15,2013-04-07 22:10:00,
2013-04-07 15:20:00,61.2,53.2,30.02,SSW,192,6.0,6.0,75,0.00,,,0.00,Wunderground v.1.15,2013-04-07 22:20:00,
2013-04-07 15:30:00,61.4,53.0,30.01,South,188,4.0,4.0,74,0.00,,,0.00,Wunderground v.1.15,2013-04-07 22:30:00,
2013-04-07 15:40:00,61.2,53.2,30.01,South,182,4.0,7.0,75,0.00,,,0.00,Wunderground v.1.15,2013-04-07 22:40:00,
2013-04-07 15:50:00,61.3,52.9,30.01,WSW,239,4.0,5.0,74,0.00,,,0.00,Wunderground v.1.15,2013-04-07 22:50:00,
2013-04-07 16:00:00,60.6,52.3,30.00,SSE,166,5.0,5.0,74,0.00,,,0.00,Wunderground v.1.15,2013-04-07 23:00:00,
2013-04-07 16:10:00,60.2,52.2,30.00,ESE,121,6.0,6.0,75,0.00,,,0.00,Wunderground v.1.15,2013-04-07 23:10:00,
2013-04-07 16:20:00,59.8,51.9,30.00,SW,222,5.0,5.0,75,0.00,,,0.00,Wunderground v.1.15,2013-04-07 23:20:00,
2013-04-07 16:30:00,59.5,51.9,30.00,South,170,5.0,5.0,76,0.00,,,0.00,Wunderground v.1.15,2013-04-07 23:30:00,
2013-04-07 16:40:00,59.3,52.1,29.99,SSW,197,5.0,5.0,77,0.00,,,0.00,Wunderground v.1.15,2013-04-07 23:40:00,
2013-04-07 16:50:00,59.1,51.9,29.98,South,175,5.0,5.0,77,0.00,,,0.00,Wunderground v.1.15,2013-04-07 23:50:00,
2013-04-07 17:00:00,58.9,51.3,29.98,SSE,167,5.0,5.0,76,0.00,,,0.00,Wunderground v.1.15,2013-04-08 00:00:00,
2013-04-07 17:10:00,58.7,51.2,29.97,SSW,192,5.0,5.0,76,0.00,,,0.00,Wunderground v.1.15,2013-04-08 00:10:00,
2013-04-07 17:20:00,58.6,50.3,29.96,South,178,5.0,5.0,74,0.00,,,0.00,Wunderground v.1.15,2013-04-08 00:20:00,
2013-04-07 17:30:00,58.3,50.4,29.95,SSW,213,5.0,10.0,75,0.00,,,0.00,Wunderground v.1.15,2013-04-08 00:30:00,
2013-04-07 17:40:00,58.1,50.2,29.95,SE,146,5.0,6.0,75,0.00,,,0.00,Wunderground v.1.15,2013-04-08 00:40:00,
2013-04-07 17:50:00,57.6,50.1,29.94,SSE,167,5.0,7.0,76,0.00,,,0.00,Wunderground v.1.15,2013-04-08 00:50:00,
2013-04-07 18:00:00,57.1,50.0,29.95,SSE,164,6.0,6.0,77,0.00,,,0.00,Wunderground v.1.15,2013-04-08 01:00:00,
2013-04-07 18:10:00,56.8,49.7,29.93,South,172,6.0,7.0,77,0.00,,,0.00,Wunderground v.1.15,2013-04-08 01:10:00,
2013-04-07 18:20:00,56.6,49.8,29.93,South,174,5.0,5.0,78,0.00,,,0.00,Wunderground v.1.15,2013-04-08 01:20:00,
2013-04-07 18:30:00,56.2,49.4,29.92,SSW,194,6.0,6.0,78,0.00,,,0.00,Wunderground v.1.15,2013-04-08 01:30:00,
2013-04-07 18:40:00,55.9,49.5,29.91,SSW,195,7.0,9.0,79,0.00,,,0.00,Wunderground v.1.15,2013-04-08 01:40:00,
2013-04-07 18:50:00,55.6,49.2,29.91,South,172,6.0,10.0,79,0.00,,,0.00,Wunderground v.1.15,2013-04-08 01:50:00,
2013-04-07 19:03:00,55.3,48.9,29.92,South,180,6.0,17.0,79,0.00,,,-99.99,WeatherLink 6.0.0,2013-04-08 02:03:00,
2013-04-07 19:10:00,55.2,48.5,29.92,South,191,6.0,7.0,78,0.00,,,0.00,Wunderground v.1.15,2013-04-08 02:10:00,
2013-04-07 19:20:00,55.0,47.9,29.92,WSW,249,5.0,5.0,77,0.00,,,0.00,Wunderground v.1.15,2013-04-08 02:20:00,
2013-04-07 19:33:00,54.8,48.1,29.92,South,180,5.0,14.0,78,0.00,,,-99.99,WeatherLink 6.0.0,2013-04-08 02:33:00,
2013-04-07 19:40:00,54.4,47.3,29.91,South,173,5.0,9.0,77,0.00,,,0.00,Wunderground v.1.15,2013-04-08 02:40:00,
2013-04-07 19:50:00,54.1,46.7,29.90,SSW,193,8.0,8.0,76,0.00,,,0.00,Wunderground v.1.15,2013-04-08 02:50:00,
2013-04-07 20:00:00,53.7,47.7,29.89,SSW,201,6.0,6.0,80,0.00,,,0.00,Wunderground v.1.15,2013-04-08 03:00:00,
2013-04-07 20:10:00,53.2,46.2,29.90,WSW,241,3.0,3.0,77,0.00,,,0.00,Wunderground v.1.15,2013-04-08 03:10:00,
2013-04-07 20:20:00,52.8,45.1,29.91,SSW,213,3.0,8.0,75,0.00,,,0.00,Wunderground v.1.15,2013-04-08 03:20:00,
2013-04-07 20:30:00,52.4,45.7,29.89,SSW,193,4.0,4.0,78,0.00,,,0.00,Wunderground v.1.15,2013-04-08 03:30:00,
2013-04-07 20:40:00,51.9,46.3,29.90,SE,144,4.0,4.0,81,0.00,,,0.00,Wunderground v.1.15,2013-04-08 03:40:00,
2013-04-07 20:50:00,51.5,46.2,29.89,South,186,4.0,7.0,82,0.00,,,0.00,Wunderground v.1.15,2013-04-08 03:50:00,
2013-04-07 21:00:00,50.9,45.9,29.89,SSE,159,5.0,5.0,83,0.00,,,0.00,Wunderground v.1.15,2013-04-08 04:00:00,
2013-04-07 21:10:00,50.5,45.5,29.88,SSE,161,5.0,5.0,83,0.00,,,0.00,Wunderground v.1.15,2013-04-08 04:10:00,
2013-04-07 21:20:00,50.1,45.1,29.89,SSE,159,5.0,5.0,83,0.00,,,0.00,Wunderground v.1.15,2013-04-08 04:20:00,
2013-04-07 21:30:00,49.9,44.9,29.89,South,180,5.0,9.0,83,0.00,,,0.00,Wunderground v.1.15,2013-04-08 04:30:00,
2013-04-07 22:00:00,49.1,44.2,29.89,South,180,4.0,11.0,83,0.00,,,-99.99,WeatherLink 6.0.0,2013-04-08 05:00:00,
2013-04-07 22:30:00,48.1,44.4,29.87,South,180,4.0,10.0,87,0.00,,,-99.99,WeatherLink 6.0.0,2013-04-08 05:30:00,
2013-04-07 23:00:00,47.5,44.7,29.86,South,180,5.0,14.0,90,0.00,,,-99.99,WeatherLink 6.0.0,2013-04-08 06:00:00,
2013-04-07 23:30:00,46.7,45.1,29.84,South,180,5.0,13.0,94,0.04,,,-99.99,WeatherLink 6.0.0,2013-04-08 06:30:00,